Fernwood, MS

3:12 AM CST on February 22, 2017 (GMT -0600)
McComb-Pike County-Lewis

Weather History for KMCB - December, 2013

Change the Weather History Date:

Monday, December 2, 2013

  Actual Average Record
Temperature  
Mean Temperature 62 °F -  
Max Temperature 71 °F 65 °F 79 °F (1982)
Min Temperature 52 °F 41 °F 22 °F (1960)
Degree Days  
Heating Degree Days 4    
Growing Degree Days 12 (Base 50)    
Moisture  
Dew Point 56 °F    
Average Humidity 82    
Maximum Humidity 100    
Minimum Humidity 66    
Precipitation  
Precipitation 0.01 in - - ()
Sea Level Pressure  
Sea Level Pressure 29.84 in    
Wind  
Wind Speed 5 mph (South)    
Max Wind Speed 10 mph    
Max Gust Speed 18 mph    
Visibility 10 miles    
Events Rain    
Averages and records for this station are not official NWS values.
T = Trace of Precipitation, MM = Missing Value Source: NWS Daily Summary

Daily Weather History Graph

Daily Weather History Graph

Search for Another Location

Airport or City:

Trip Planner

Search our weather history database for the weather conditions in past years. The results will help you decide how hot, cold, wet, or windy it might be!

Date:

Astronomy

Dec. 02, 2013 Rise Set
Actual Time 6:43 AM CST 4:59 PM CST
Civil Twilight 6:17 AM CST 5:25 PM CST
Nautical Twilight 5:47 AM CST 5:55 PM CST
Astronomical Twilight 5:18 AM CST 6:24 PM CST
Moon 6:11 AM CST (12/2) 5:00 PM CST (12/2)
Length of Visible Light 11h 08m
Length of Day
10h 15m
Waning Crescent, 0% of the Moon is Illuminated
Dec 2
Waning Crescent
Dec 2
New
Dec 9
First Quarter
Dec 17
Full
Dec 25
Last Quarter

Hourly Weather History & Observations

Time (CST) Temp. Dew Point Humidity Pressure Visibility Wind Dir Wind Speed Gust Speed Precip Events Conditions
12:53 AM 54.0 °F 50.0 °F 86% 29.97 in 10.0 mi SSE 4.6 mph - N/A   Overcast
1:53 AM 54.0 °F 50.0 °F 86% 29.97 in 10.0 mi South 3.5 mph - N/A   Overcast
2:53 AM 53.1 °F 48.9 °F 86% 29.95 in 10.0 mi South 3.5 mph - N/A   Overcast
3:53 AM 53.1 °F 48.9 °F 86% 29.94 in 10.0 mi Calm Calm - N/A   Overcast
4:53 AM 53.1 °F 48.9 °F 86% 29.92 in 10.0 mi Calm Calm - N/A   Overcast
5:53 AM 53.1 °F 48.9 °F 86% 29.91 in 10.0 mi Calm Calm - N/A   Overcast
6:53 AM 52.0 °F 48.9 °F 89% 29.90 in 10.0 mi SSE 3.5 mph - N/A   Mostly Cloudy
7:53 AM 55.0 °F 50.0 °F 83% 29.89 in 10.0 mi South 3.5 mph - N/A   Overcast
8:53 AM 60.1 °F 53.1 °F 78% 29.90 in 10.0 mi South 5.8 mph - N/A   Mostly Cloudy
9:53 AM 64.0 °F 55.0 °F 73% 29.88 in 10.0 mi South 8.1 mph - N/A   Mostly Cloudy
10:26 AM 68.0 °F 57.2 °F 68% 29.88 in 10.0 mi SSW 9.2 mph - N/A   Mostly Cloudy
10:43 AM 66.2 °F 57.2 °F 73% 29.87 in 10.0 mi SSW 10.4 mph 18.4 mph N/A   Mostly Cloudy
10:53 AM 69.1 °F 59.0 °F 70% 29.86 in 10.0 mi SSW 10.4 mph 18.4 mph N/A   Mostly Cloudy
11:53 AM 66.0 °F 60.1 °F 81% 29.82 in 10.0 mi SSW 6.9 mph - 0.00 in Rain Light Rain
12:51 PM 68.0 °F 60.8 °F 78% 29.80 in 10.0 mi SSW 6.9 mph - 0.00 in   Overcast
12:53 PM 68.0 °F 60.1 °F 76% 29.80 in 10.0 mi South 5.8 mph - 0.00 in   Overcast
1:53 PM 71.1 °F 60.1 °F 68% 29.77 in 10.0 mi SW 8.1 mph - N/A   Mostly Cloudy
2:53 PM 71.1 °F 60.1 °F 68% 29.75 in 10.0 mi South 9.2 mph - N/A   Mostly Cloudy
3:53 PM 71.1 °F 59.0 °F 66% 29.74 in 10.0 mi SSW 6.9 mph - N/A   Partly Cloudy
4:53 PM 69.1 °F 60.1 °F 73% 29.75 in 10.0 mi SSW 5.8 mph - N/A   Mostly Cloudy
5:53 PM 64.0 °F 59.0 °F 84% 29.75 in 10.0 mi South 4.6 mph - N/A   Clear
6:53 PM 63.0 °F 59.0 °F 87% 29.75 in 10.0 mi South 5.8 mph - N/A   Clear
7:53 PM 62.1 °F 59.0 °F 90% 29.75 in 10.0 mi South 4.6 mph - N/A   Clear
8:53 PM 61.0 °F 59.0 °F 93% 29.78 in 10.0 mi South 5.8 mph - N/A   Clear
9:53 PM 60.1 °F 59.0 °F 96% 29.79 in 10.0 mi South 5.8 mph - N/A   Partly Cloudy
10:11 PM 60.8 °F 60.8 °F 100% 29.79 in 10.0 mi South 4.6 mph - N/A   Mostly Cloudy
10:53 PM 62.1 °F 60.1 °F 93% 29.78 in 10.0 mi South 5.8 mph - 0.01 in   Overcast
11:53 PM 62.1 °F 61.0 °F 96% 29.77 in 10.0 mi SW 3.5 mph - N/A   Overcast